| time (UTC) | temp F | wind direction | speed MPH | gust MPH | rain 1hr in | rain 24hr in | rain mn in | humidity % | barometer mb |
| 20260904060012 | 56 | 110 | 0.0 | 1.0 | 0.00 | 0.00 | 0.00 | 62 | 1005.5 |
| 20260904055003 | 56 | 105 | 0.0 | 0.0 | 0.00 | 0.00 | 0.00 | 63 | 1005.6 |
| 20260904053933 | 57 | 109 | 0.0 | 0.0 | 0.00 | 0.00 | 0.00 | 63 | 1005.8 |
| 20260904051812 | 57 | 108 | 0.0 | 0.0 | 0.00 | 0.00 | 0.00 | 63 | 1006.0 |
| 20260904045733 | 57 | 110 | 0.0 | 0.0 | 0.00 | 0.00 | 0.00 | 62 | 1006.0 |
| 20260904044718 | 57 | 111 | 0.0 | 0.0 | 0.00 | 0.00 | 0.00 | 61 | 1005.9 |
| 20260904043738 | 57 | 109 | 0.0 | 0.0 | 0.00 | 0.00 | 0.00 | 61 | 1006.1 |
| 20260904041528 | 58 | 109 | 0.0 | 0.0 | 0.00 | 0.00 | 0.00 | 61 | 1006.0 |
| 20260904040512 | 59 | 118 | 0.0 | 0.0 | 0.00 | 0.00 | 0.00 | 59 | 1006.0 |
| 20260904035525 | 59 | 119 | 0.0 | 0.0 | 0.00 | 0.00 | 0.00 | 59 | 1006.1 |
| 20260904034534 | 59 | 117 | 0.0 | 0.0 | 0.00 | 0.00 | 0.00 | 59 | 1006.1 |
| 20260904033554 | 60 | 118 | 0.0 | 0.0 | 0.00 | 0.00 | 0.00 | 59 | 1006.1 |
| 20260904032613 | 60 | 116 | 0.0 | 0.0 | 0.00 | 0.00 | 0.00 | 57 | 1006.2 |
| 20260904031624 | 61 | 115 | 0.0 | 0.0 | 0.00 | 0.00 | 0.00 | 57 | 1006.2 |
| 20260904030551 | 61 | 342 | 0.0 | 0.0 | 0.00 | 0.00 | 0.00 | 57 | 1006.1 |
| 20260904023316 | 63 | 342 | 0.0 | 0.0 | 0.00 | 0.00 | 0.00 | 54 | 1005.5 |
| 20260904021137 | 65 | 340 | 0.0 | 0.0 | 0.00 | 0.00 | 0.00 | 54 | 1005.1 |
| 20260904015018 | 68 | 339 | 0.0 | 0.0 | 0.00 | 0.00 | 0.00 | 50 | 1005.0 |
| 20260904013958 | 69 | 338 | 0.0 | 0.0 | 0.00 | 0.00 | 0.00 | 48 | 1005.0 |
| 20260904012953 | 70 | 337 | 0.0 | 0.0 | 0.00 | 0.00 | 0.00 | 46 | 1005.0 |
| 20260904011947 | 71 | 336 | 0.0 | 0.0 | 0.00 | 0.00 | 0.00 | 44 | 1004.8 |
| 20260904011002 | 72 | 338 | 0.0 | 0.0 | 0.00 | 0.00 | 0.00 | 41 | 1004.8 |
| 20260904010005 | 73 | 337 | 0.0 | 0.0 | 0.00 | 0.00 | 0.00 | 38 | 1004.8 |
| 20260904005008 | 73 | 336 | 0.0 | 0.0 | 0.00 | 0.00 | 0.00 | 37 | 1004.7 |
| 20260904003959 | 74 | 337 | 0.0 | 0.0 | 0.00 | 0.00 | 0.00 | 34 | 1004.7 |
| 20260904003023 | 75 | 338 | 0.0 | 0.0 | 0.00 | 0.00 | 0.00 | 34 | 1004.7 |
| 20260904002022 | 76 | 337 | 0.0 | 0.0 | 0.00 | 0.00 | 0.00 | 29 | 1004.8 |
| 20260904001028 | 76 | 338 | 0.0 | 1.0 | 0.00 | 0.00 | 0.00 | 27 | 1004.8 |
| 20260903234810 | 78 | 347 | 1.0 | 8.0 | 0.00 | 0.00 | 0.00 | 25 | 1004.6 |
| 20260903232704 | 78 | 65 | 1.0 | 8.0 | 0.00 | 0.00 | 0.00 | 25 | 1004.3 |
| 20260903231703 | 78 | 2 | 2.0 | 8.0 | 0.00 | 0.00 | 0.00 | 25 | 1004.3 |
| 20260903230704 | 78 | 24 | 2.0 | 10.0 | 0.00 | 0.00 | 0.00 | 24 | 1004.2 |
| 20260903225706 | 78 | 349 | 4.0 | 10.0 | 0.00 | 0.00 | 0.00 | 24 | 1004.3 |
| 20260903224726 | 78 | 353 | 2.0 | 7.0 | 0.00 | 0.00 | 0.00 | 24 | 1004.3 |
| 20260903223715 | 80 | 155 | 1.0 | 7.0 | 0.00 | 0.00 | 0.00 | 23 | 1004.2 |
| 20260903222648 | 79 | 150 | 0.0 | 5.0 | 0.00 | 0.00 | 0.00 | 29 | 1004.0 |
| 20260903221709 | 78 | 38 | 0.0 | 18.0 | 0.00 | 0.00 | 0.00 | 29 | 1004.1 |
| 20260903220643 | 78 | 354 | 2.0 | 18.0 | 0.00 | 0.00 | 0.00 | 26 | 1004.0 |
| 20260903215634 | 77 | 339 | 0.0 | 4.0 | 0.00 | 0.00 | 0.00 | 27 | 1003.9 |
| 20260903214636 | 78 | 339 | 1.0 | 6.0 | 0.00 | 0.00 | 0.00 | 30 | 1003.9 |
| 20260903211314 | 80 | 180 | 1.0 | 8.0 | 0.00 | 0.00 | 0.00 | 22 | 1003.8 |
| 20260903205125 | 79 | 45 | 2.0 | 10.0 | 0.00 | 0.00 | 0.00 | 27 | 1004.2 |
| 20260903204125 | 79 | 53 | 3.0 | 10.0 | 0.00 | 0.00 | 0.00 | 25 | 1004.3 |
| 20260903203053 | 79 | 66 | 2.0 | 10.0 | 0.00 | 0.00 | 0.00 | 25 | 1004.3 |
| 20260903202112 | 79 | 52 | 1.0 | 9.0 | 0.00 | 0.00 | 0.00 | 27 | 1004.2 |
| 20260903195934 | 78 | 323 | 3.0 | 9.0 | 0.00 | 0.00 | 0.00 | 27 | 1004.3 |
| 20260903194926 | 78 | 34 | 2.0 | 9.0 | 0.00 | 0.00 | 0.00 | 25 | 1004.4 |
| 20260903193927 | 77 | 39 | 2.0 | 9.0 | 0.00 | 0.00 | 0.00 | 27 | 1004.5 |
| 20260903192859 | 77 | 349 | 1.0 | 5.0 | 0.00 | 0.00 | 0.00 | 33 | 1004.5 |
| 20260903191859 | 76 | 17 | 3.0 | 9.0 | 0.00 | 0.00 | 0.00 | 27 | 1004.6 |
| 20260903190840 | 76 | 1 | 3.0 | 10.0 | 0.00 | 0.00 | 0.00 | 27 | 1004.9 |
| 20260903185847 | 76 | 118 | 2.0 | 10.0 | 0.00 | 0.00 | 0.00 | 27 | 1004.8 |
| 20260903184836 | 76 | 2 | 3.0 | 10.0 | 0.00 | 0.00 | 0.00 | 28 | 1004.9 |
| 20260903183855 | 75 | 59 | 1.0 | 11.0 | 0.00 | 0.00 | 0.00 | 29 | 1004.9 |
| 20260903182838 | 75 | 338 | 3.0 | 11.0 | 0.00 | 0.00 | 0.00 | 28 | 1004.9 |
| 20260903180703 | 73 | 30 | 2.0 | 5.0 | 0.00 | 0.00 | 0.00 | 31 | 1004.9 |
| 20260903174503 | 73 | 3 | 2.0 | 10.0 | 0.00 | 0.00 | 0.00 | 30 | 1005.3 |
| 20260903173505 | 73 | 55 | 1.0 | 8.0 | 0.00 | 0.00 | 0.00 | 30 | 1005.3 |
| 20260903172521 | 72 | 11 | 2.0 | 8.0 | 0.00 | 0.00 | 0.00 | 34 | 1005.2 |
| 20260903171544 | 72 | 40 | 1.0 | 8.0 | 0.00 | 0.00 | 0.00 | 31 | 1005.2 |
| 20260903170541 | 71 | 343 | 1.0 | 11.0 | 0.00 | 0.00 | 0.00 | 33 | 1005.2 |
| 20260903165510 | 71 | 41 | 3.0 | 11.0 | 0.00 | 0.00 | 0.00 | 33 | 1005.3 |
| 20260903164533 | 70 | 43 | 2.0 | 10.0 | 0.00 | 0.00 | 0.00 | 34 | 1005.3 |
| 20260903163541 | 69 | 44 | 1.0 | 7.0 | 0.00 | 0.00 | 0.00 | 35 | 1005.2 |
| 20260903162521 | 69 | 16 | 2.0 | 10.0 | 0.00 | 0.00 | 0.00 | 34 | 1005.3 |
| 20260903161543 | 68 | 6 | 1.0 | 10.0 | 0.00 | 0.00 | 0.00 | 37 | 1005.3 |
| 20260903160509 | 66 | 20 | 2.0 | 7.0 | 0.00 | 0.00 | 0.00 | 37 | 1005.2 |
| 20260903155438 | 62 | 51 | 1.0 | 7.0 | 0.00 | 0.00 | 0.00 | 42 | 1005.1 |
| 20260903154453 | 59 | 113 | 0.0 | 0.0 | 0.00 | 0.00 | 0.00 | 60 | 1005.1 |
| 20260903152257 | 57 | 99 | 0.0 | 0.0 | 0.00 | 0.00 | 0.00 | 66 | 1005.4 |
| 20260903151236 | 56 | 346 | 0.0 | 0.0 | 0.00 | 0.00 | 0.00 | 68 | 1005.4 |
| 20260903150218 | 55 | 339 | 0.0 | 3.0 | 0.00 | 0.00 | 0.00 | 68 | 1005.5 |
| 20260903145155 | 54 | 339 | 0.0 | 0.0 | 0.00 | 0.00 | 0.00 | 69 | 1005.5 |
| 20260903144138 | 53 | 347 | 0.0 | 0.0 | 0.00 | 0.00 | 0.00 | 73 | 1005.5 |
| 20260903143115 | 53 | 354 | 0.0 | 0.0 | 0.00 | 0.00 | 0.00 | 73 | 1005.6 |
| 20260903142119 | 52 | 295 | 0.0 | 0.0 | 0.00 | 0.00 | 0.00 | 72 | 1005.5 |
| 20260903141046 | 52 | 2 | 0.0 | 0.0 | 0.00 | 0.00 | 0.00 | 70 | 1005.5 |
| 20260903140028 | 53 | 3 | 0.0 | 0.0 | 0.00 | 0.00 | 0.00 | 70 | 1005.3 |
| 20260903135029 | 53 | 3 | 0.0 | 0.0 | 0.00 | 0.00 | 0.00 | 66 | 1005.1 |
| 20260903132841 | 52 | 8 | 0.0 | 0.0 | 0.00 | 0.00 | 0.00 | 69 | 1005.0 |
| 20260903131857 | 52 | 9 | 0.0 | 0.0 | 0.00 | 0.00 | 0.00 | 69 | 1004.8 |
| 20260903130842 | 52 | 9 | 0.0 | 0.0 | 0.00 | 0.00 | 0.00 | 68 | 1004.8 |
| 20260903125822 | 52 | 9 | 0.0 | 0.0 | 0.00 | 0.00 | 0.00 | 67 | 1004.7 |
| 20260903124847 | 52 | 7 | 0.0 | 0.0 | 0.00 | 0.00 | 0.00 | 66 | 1004.6 |
| 20260903123836 | 52 | 7 | 0.0 | 1.0 | 0.00 | 0.00 | 0.00 | 65 | 1004.6 |
| 20260903122854 | 52 | 10 | 0.0 | 2.0 | 0.00 | 0.00 | 0.00 | 64 | 1004.6 |
| 20260903121917 | 52 | 323 | 0.0 | 0.0 | 0.00 | 0.00 | 0.00 | 66 | 1004.5 |
| 20260903120918 | 51 | 18 | 0.0 | 2.0 | 0.00 | 0.00 | 0.00 | 67 | 1004.6 |
| 20260903115910 | 51 | 21 | 0.0 | 2.0 | 0.00 | 0.00 | 0.00 | 71 | 1004.5 |
| 20260903114924 | 51 | 20 | 0.0 | 0.0 | 0.00 | 0.00 | 0.00 | 71 | 1004.6 |
| 20260903113918 | 51 | 20 | 0.0 | 0.0 | 0.00 | 0.00 | 0.00 | 71 | 1004.6 |
| 20260903112859 | 50 | 25 | 0.0 | 0.0 | 0.00 | 0.00 | 0.00 | 71 | 1004.6 |
| 20260903111835 | 50 | 37 | 0.0 | 0.0 | 0.00 | 0.00 | 0.00 | 71 | 1004.7 |
| 20260903110854 | 50 | 32 | 0.0 | 0.0 | 0.00 | 0.00 | 0.00 | 71 | 1004.7 |
| 20260903105854 | 50 | 32 | 0.0 | 0.0 | 0.00 | 0.00 | 0.00 | 71 | 1004.6 |
| 20260903104848 | 50 | 32 | 0.0 | 0.0 | 0.00 | 0.00 | 0.00 | 71 | 1004.6 |
| 20260903103824 | 50 | 30 | 0.0 | 0.0 | 0.00 | 0.00 | 0.00 | 71 | 1004.7 |
| 20260903102752 | 49 | 37 | 0.0 | 0.0 | 0.00 | 0.00 | 0.00 | 72 | 1004.7 |
| 20260903101810 | 49 | 42 | 0.0 | 0.0 | 0.00 | 0.00 | 0.00 | 72 | 1004.6 |
| 20260903095554 | 49 | 43 | 0.0 | 1.0 | 0.00 | 0.00 | 0.00 | 71 | 1004.6 |
| 20260903094537 | 49 | 51 | 0.0 | 0.0 | 0.00 | 0.00 | 0.00 | 71 | 1004.7 |
| 20260903092413 | 49 | 43 | 0.0 | 0.0 | 0.00 | 0.00 | 0.00 | 71 | 1004.7 |
| 20260903091438 | 49 | 41 | 0.0 | 0.0 | 0.00 | 0.00 | 0.00 | 71 | 1004.7 |
| 20260903085409 | 49 | 43 | 0.0 | 1.0 | 0.00 | 0.00 | 0.00 | 71 | 1004.4 |
| 20260903084350 | 49 | 44 | 0.0 | 0.0 | 0.00 | 0.00 | 0.00 | 71 | 1004.3 |
| 20260903083320 | 49 | 52 | 0.0 | 0.0 | 0.00 | 0.00 | 0.00 | 71 | 1004.4 |
| 20260903080016 | 49 | 51 | 0.0 | 0.0 | 0.00 | 0.00 | 0.00 | 69 | 1004.1 |
| 20260903073832 | 49 | 47 | 0.0 | 2.0 | 0.00 | 0.00 | 0.00 | 68 | 1004.2 |
| 20260903072842 | 49 | 45 | 0.0 | 0.0 | 0.00 | 0.00 | 0.00 | 69 | 1004.2 |
| 20260903071814 | 49 | 43 | 0.0 | 2.0 | 0.00 | 0.00 | 0.00 | 69 | 1004.2 |
| 20260903070743 | 49 | 42 | 0.0 | 0.0 | 0.00 | 0.00 | 0.00 | 69 | 1003.9 |
| 20260903065729 | 49 | 43 | 0.0 | 0.0 | 0.00 | 0.00 | 0.00 | 69 | 1004.1 |
| 20260903064659 | 50 | 39 | 0.0 | 3.0 | 0.00 | 0.00 | 0.00 | 68 | 1004.1 |
| 20260903063712 | 50 | 43 | 0.0 | 0.0 | 0.00 | 0.00 | 0.00 | 67 | 1003.8 |
| 20260903062701 | 50 | 37 | 0.0 | 0.0 | 0.00 | 0.00 | 0.00 | 67 | 1004.3 |
| 20260903061643 | 51 | 25 | 0.0 | 0.0 | 0.00 | 0.00 | 0.00 | 66 | 1004.4 |
| 20260903060623 | 52 | 29 | 0.0 | 0.0 | 0.00 | 0.00 | 0.00 | 64 | 1004.5 |